This demonstration page uses our WeatherBlox Daily Observations layout. Learn more.

Left ArrowRight Arrow

Hourly Observations for January 3, 2021

Temp ( °F °C ) Dew Point ( °F °C ) Humidity (%) Winds ( mph kmh ) Pressure ( in mb ) Visibility ( mi km ) Precip ( " mm )
12:53 am 00:53 Clear 42 5.6 22 -5.6 45 45 SSW 21 33 29.54 1000 10 16 0.00 0.00
1:53 am 01:53 Clear 42 5.6 22 -5.6 45 45 SW 22 35 29.52 1000 10 16 0.00 0.00
2:53 am 02:53 Clear 44 6.7 22 -5.6 41 41 SW 28 44 29.51 999 10 16 0.00 0.00
3:53 am 03:53 Clear 43 6.1 23 -5 45 45 SW 18 30 29.54 1000 10 16 0.00 0.00
4:53 am 04:53 Clear 44 6.7 23 -5 43 43 SW 21 33 29.52 1000 10 16 0.00 0.00
5:53 am 05:53 Clear 44 6.7 23 -5 43 43 SW 22 35 29.50 999 10 16 0.00 0.00
6:53 am 06:53 Clear 44 6.7 24 -4.4 45 45 SW 28 44 29.49 999 10 16 0.00 0.00
7:53 am 07:53 Clear 46 7.8 25 -3.9 44 44 SW 26 43 29.49 999 10 16 0.00 0.00
8:53 am 08:53 Sunny 45 7.2 25 -3.9 46 46 SW 25 41 29.50 999 10 16 0.00 0.00
9:53 am 09:53 Sunny 47 8.3 24 -4.4 41 41 SW 30 48 29.50 999 10 16 0.00 0.00
10:53 am 10:53 Mostly Sunny 49 9.4 24 -4.4 38 38 SW 32 52 29.48 998 10 16 0.00 0.00
11:53 am 11:53 Sunny 49 9.4 25 -3.9 39 39 SW 25 41 29.49 999 10 16 0.00 0.00
12:53 pm 12:53 Mostly Cloudy 53 11.7 29 -1.7 40 40 WSW 31 50 29.50 999 10 16 0.00 0.00
1:53 pm 13:53 Cloudy with Rain 40 4.4 35 1.7 83 83 WNW 36 57 29.60 1002 4 6 0.00 0.00
2:02 pm 14:02 Cloudy with Light Rain 39 3.9 34 1.1 82 82 WNW 37 59 29.63 1003 5 8 0.00 0.00
2:24 pm 14:24 Cloudy 39 3.9 33 0.6 79 79 NW 18 30 29.62 1003 10 16 0.01 0.25
2:53 pm 14:53 Mostly Cloudy 39 3.9 33 0.6 79 79 W 14 22 29.64 1004 10 16 0.02 0.51
3:53 pm 15:53 Sunny 39 3.9 31 -0.6 73 73 W 17 28 29.70 1006 10 16 0.00 0.00
4:53 pm 16:53 Clear 36 2.2 29 -1.7 76 76 WSW 16 26 29.76 1008 10 16 0.00 0.00
5:53 pm 17:53 Clear 33 0.6 27 -2.8 78 78 SW 12 19 29.80 1009 10 16 0.00 0.00
6:53 pm 18:53 Clear 30 -1.1 23 -5 75 75 SW 8 13 29.82 1010 10 16 0.00 0.00
7:53 pm 19:53 Clear 29 -1.7 22 -5.6 75 75 SSW 9 15 29.83 1010 10 16 0.00 0.00
8:53 pm 20:53 Clear 33 0.6 22 -5.6 64 64 SSW 9 15 29.84 1010 10 16 0.00 0.00
9:53 pm 21:53 Clear 34 1.1 23 -5 64 64 SW 15 24 29.85 1011 10 16 0.00 0.00
10:53 pm 22:53 Clear 33 0.6 21 -6.1 61 61 SSW 16 26 29.87 1012 10 16 0.00 0.00
11:53 pm 23:53 Clear 32 0 21 -6.1 64 64 SW 14 22 29.88 1012 10 16 0.00 0.00

Powered by AerisWeather